User: anonymous   Login
Location: Caltech
(34.1382°N, 118.1253°W)
Time: 14:38:54
(UTC-08:00)
Language:

Oscar 11 - Orbit

View from above orbital plane
View from above orbital plane
View from above satellite
View from above satellite

Ground track
Ground track

The orbit data is extracted from the following two-line orbital elements,

1 14781U 84021B   15057.73287209  .00000823  00000-0  10971-3 0  9996
2 14781 097.8167 117.4667 0009999 074.7532 285.4786 14.82184445665667
Epoch (UTC): 26 February 2015 17:35:20
Eccentricity: 0.0009999
inclination: 97.8167°
perigee height: 615 km
apogee height: 629 km
right ascension of ascending node: 117.4667°
argument of perigee: 74.7532°
revolutions per day: 14.82184445
mean anomaly at epoch: 285.4786°
orbit number at epoch: 66566

The dashed part of the orbit path shows where the satellite is in the earth's shadow,  

DLR